HJ-2A

Last updated on Wed Oct 28 2020 00:02:03 GMT+0000 (Coordinated Universal Time)

1 46478U 20067A 20301.54936771 .00000085 00000-0 20036-4 0 9990 2 46478 98.0448 16.6926 0018122 268.3455 91.5679 14.75720722 4481
UTC large
Height (km)
Speed (km/s)
/
Latitude / Longitude
Inclination (degrees)
Orbital Period (minutes)
Azimuth
Elevation
Range (km)
Doppler Factor

Next 0 passes for location: London (51.5072 / 0.1276)

Sorry there are no passes over London.